Regional Weather Roundup
Issued by NWS

Home | Current Version | Previous Version | Text Only | Print | Product List | Glossary Off
Versions: 1 2 3 4 5 6 7 8 9 10 11 12 13 14 15 16 17 18 19 20 21 22 23 24 25 26 27 28 29 30 31 32 33 34 35 36 37 38 39 40 41 42 43 44 45 46 47 48 49 50

000
ASUS43 KMPX 240110
RWRMN
WEATHER ROUNDUP FOR MINNESOTA
NATIONAL WEATHER SERVICE TWIN CITIES/CHANHASSEN MN
800 PM CDT WED MAY 23 2018


NOTE: "FAIR" INDICATES FEW OR NO CLOUDS BELOW 12,000 FEET WITH NO
SIGNIFICANT WEATHER AND/OR OBSTRUCTIONS TO VISIBILITY. N/A MEANS
CURRENT SKY AND/OR WEATHER CONDITIONS ARE NOT AVAILABLE.

MNZ060>063-068>070-240200-
   Twin Cities Metro

CITY           SKY/WX    TMP DP  RH WIND       PRES   REMARKS
TWIN CITIES    MOCLDY    81  61  50 SE6       30.04F
ST PAUL        FAIR      79  61  53 SE7       30.04F
CRYSTAL        FAIR      80  60  50 SE7       30.02F
BLAINE         MOCLDY    81  64  57 E9        30.04F
LAKEVILLE      FAIR      79  64  61 SE7       30.05R
EDEN PRAIRIE   FAIR      78  62  57 SE7       30.03S
SOUTH ST PAUL  FAIR      80  59  48 SE5       30.04S
LAKE ELMO      FAIR      79  63  57 SE5       30.06F
$$
MNZ001>005-007-008-013>017-022>024-027-028-240200-
   Northwest Minnesota

CITY           SKY/WX    TMP DP  RH WIND       PRES   REMARKS
BEMIDJI        FAIR      75  59  56 S8        30.01F
HALLOCK        FAIR      82  55  39 S17       29.92S
ROSEAU         FAIR      81  61  50 SE7       29.97S
WARROAD        FAIR      68  61  77 CALM      29.98F
THIEF RVR FALL FAIR      78  60  53 S13       29.97F
CROOKSTON      FAIR      79  61  53 S14       29.94F
FOSSTON        FAIR      77  55  47 S13       29.99F
DETROIT LAKES  FAIR      73  55  53 SE10      30.00F
MOORHEAD       FAIR      77  57  50 SE9G17    29.94F
PARK RAPIDS    FAIR      75  61  61 SE10      30.02F
MAHNOMEN       FAIR      75  59  56 SE8       29.98F
$$
MNZ006-009>011-018-025>026-240200-
   North Central Minnesota

CITY           SKY/WX    TMP DP  RH WIND       PRES   REMARKS
BAUDETTE       FAIR      78  56  46 S3        29.99F
FLAG ISLAND    FAIR      79  54  41 CALM      29.97F
INTL FALLS     FAIR      77  56  48 CALM      30.01S
WASKISH          N/A     77  59  53 CALM      30.01S
BIG FORK       FAIR      75  57  53 CALM      30.02F
LONGVILLE      FAIR      75  61  60 S8        30.05R
GRAND RAPIDS   MOCLDY    76  62  62 S7        30.06R
CRANE LAKE     FAIR      77  50  38 CALM      30.04S
ORR            FAIR      77  46  33 CALM      30.02R
COOK           FAIR      79  55  44 S3        30.05S
WALKER         FAIR      75  59  57 S10       30.03F
$$
MNZ012-019>021-037-240200-
   Northeast Minnesota

CITY           SKY/WX    TMP DP  RH WIND       PRES   REMARKS
DULUTH         MOCLDY    70  54  56 E10       30.07F
ELY            FAIR      79  50  36 CALM      30.05S
HIBBING        FAIR      76  57  51 S5        30.04S
EVELETH        MOCLDY    75  57  53 S6        30.07R
DULUTH HARBOR  FAIR      50  46  87 NE5       30.08S
TWO HARBORS    FAIR      73  57  56 E6        30.06S
SILVER BAY     FAIR      72  54  53 CALM      30.06S
GRAND MARAIS     N/A     47  39  74 E5        30.08F
G MARAIS ARPRT FAIR      68  48  49 CALM      30.12S
$$
MNZ029>031-032-039>041-046>048-054>057-064-240200-
   West Central Minnesota

CITY           SKY/WX    TMP DP  RH WIND       PRES   REMARKS
FERGUS FALLS   FAIR      72  61  68 SE13      29.94R
WHEATON        CLOUDY    72  63  73 SE14      29.96S
MORRIS         PTCLDY    72  64  78 E12       29.97F
ALEXANDRIA     MOCLDY    72  63  73 SE9       30.03F
ELBOW LAKE     FAIR      70  62  74 SE10      29.99F
WADENA         FAIR      72  59  64 SE8       30.03S
GLENWOOD       FAIR      72  61  68 E8        30.02F
APPLETON       CLOUDY    75  63  64 E12       29.95F
BENSON         LGT RAIN  75  63  64 SE9       29.99F
ORTONVILLE     PTCLDY    73  64  73 SE13      29.95S
MADISON        CLOUDY    79  68  69 SE16      29.95S
WILLMAR        FAIR      73  63  68 E9        30.02S
$$
MNZ033>034-036-042>043-049>051-058-059-240200-
   Central Minnesota

CITY           SKY/WX    TMP DP  RH WIND       PRES   REMARKS
ST CLOUD       FAIR      74  59  59 E3        30.04S
SAUK CENTRE    FAIR      71  61  70 E7        30.03F
PAYNESVILLE    FAIR      73  62  69 E6        30.03F
PINE RIVER     FAIR      72  57  60 S8        30.08S
BRAINERD       MOCLDY    75  59  57 S9        30.06R
STAPLES        FAIR      72  59  64 SE5       30.04F
LONG PRAIRIE   FAIR      68  61  77 NE8       30.04F
LITTLE FALLS   CLOUDY    64  64 100 N3        30.07R
LITCHFIELD     FAIR      75  66  73 E7        30.02F
BUFFALO        FAIR      78  60  53 E3        30.04S
MAPLE LAKE     FAIR      75  64  68 E5        30.04F
HUTCHINSON     FAIR      78  66  65 E10       30.02F
$$
MNZ037-044-045-052-053-240200-
   East Central Minnesota

CITY           SKY/WX    TMP DP  RH WIND       PRES   REMARKS
PRINCETON      FAIR      75  63  64 CALM      30.05S
MORA           FAIR      72  57  60 CALM      30.07F
CAMBRIDGE      FAIR      79  61  53 CALM      30.05S
RUSH CITY      FAIR      75  59  57 CALM      30.06S
MOOSE LAKE     FAIR      73  59  60 S5        30.05R
HINCKLEY       CLOUDY    73  61  64 CALM      30.06F
CLOQUET        FAIR      70  52  52 SE3       30.08R
MCGREGOR       FAIR      75  61  60 S8        30.06S
$$
MNZ071>073-080-081-089-090-097-098-240200-
   Southwest Minnesota

CITY           SKY/WX    TMP DP  RH WIND       PRES   REMARKS
MONTEVIDEO     CLOUDY    75  66  73 SE18G25   29.96F
GRANITE FALLS  CLOUDY    77  70  79 E9        29.98S
CANBY          CLOUDY    79  70  73 SE14      29.96F
MARSHALL       CLOUDY    78  71  79 SE16      29.95F
REDWOOD FALLS  CLOUDY    77  69  76 E8        29.97F
OLIVIA         CLOUDY    73  68  83 E9        29.99S
PIPESTONE      CLOUDY    81  63  54 S10       29.96F
WINDOM         CLOUDY    79  57  47 SE13      30.00S
WORTHINGTON      N/A     82  58  43 S10       29.99F
JACKSON        PTCLDY    77  68  73 SE13G18   30.02S
TRACY          CLOUDY    78  72  81 SE10G18   29.97F
SLAYTON        CLOUDY    81  57  44 SE9       29.99S
$$
MNZ065>067-074>077-082>085-091>093-240200-
   South Central Minnesota

CITY           SKY/WX    TMP DP  RH WIND       PRES   REMARKS
MANKATO        FAIR      79  67  66 SE12      30.03S
NEW ULM        PTCLDY    79  66  65 SE10      30.01R
ST JAMES       PTCLDY    81  66  61 SE13      30.02S
FAIRMONT       CLOUDY    80  66  62 SE16      30.02S
GLENCOE        FAIR      82  63  53 E10       30.02S
FARIBAULT      FAIR      79  64  61 CALM      30.06R
OWATONNA       FAIR      79  66  65 SE9       30.06R
WASECA         FAIR      77  68  73 SE8       30.06S
ALBERT LEA     FAIR      77  63  61 S8        30.06S
$$
MNZ078>079-086>088-094>096-240200-
   Southeast Minnesota

CITY           SKY/WX    TMP DP  RH WIND       PRES   REMARKS
ROCHESTER      FAIR      75  65  70 SE13      30.09F
RED WING       FAIR      79  57  47 SE9       30.05S
STANTON        FAIR      80  64  57 SE8       30.04R
DODGE CENTER   FAIR      75  64  69 SE12      30.08S
WINONA         FAIR      77  63  61 S3        30.06F
AUSTIN         FAIR      79  64  61 S5        30.07R
PRESTON        FAIR      75  64  67 SE10      30.10F
$$
ABBREVIATIONS USED IN REMARKS
   TC - TEMPERATURES IN CELSIUS
  WCI - WIND CHILL INDEX
   HX - HEAT INDEX
  VSB - VISIBILITY
$$



USA.gov is the U.S. government's official web portal to all federal, state and local government web resources and services.